• In Czech Republic
  • List of Countries
  • For 7 days
  • Water Temperature
  • Satellite Maps
  • Weather Map
  • Weather Widgets
  • user-avatar
    Login

    Hourly Weather Coleraine

    Today, 17 December, Sunday

    Time Temperature Precipitation Wind Pressure Humidity
    00:00 +3°C° 0 mm 5 mps 762 mmHg 94%
    01:00 +3°C° 0 mm 5 mps 762 mmHg 94%
    02:00 +3°C° 0 mm 5 mps 761 mmHg 95%
    03:00 +4°C° 0 mm 6 mps 761 mmHg 95%
    04:00 +4°C° 0.8 mm 6 mps 760 mmHg 95%
    05:00 +5°C° 0.8 mm 7 mps 759 mmHg 94%
    06:00 +6°C° 0 mm 7 mps 758 mmHg 94%
    07:00 +8°C° 1.2 mm 7 mps 758 mmHg 94%
    08:00 +8°C° 1.2 mm 7 mps 758 mmHg 94%
    09:00 +9°C° 1.2 mm 7 mps 758 mmHg 94%
    10:00 +9°C° 0 mm 7 mps 759 mmHg 91%
    11:00 +9°C° 0 mm 7 mps 760 mmHg 88%
    12:00 +9°C° 0 mm 7 mps 759 mmHg 88%
    13:00 +8°C° 0 mm 7 mps 760 mmHg 86%
    14:00 +8°C° 0 mm 7 mps 760 mmHg 83%
    15:00 +6°C° 0 mm 7 mps 761 mmHg 81%
    16:00 +5°C° 0 mm 6 mps 762 mmHg 82%
    17:00 +5°C° 0 mm 6 mps 762 mmHg 84%
    18:00 +5°C° 0 mm 5 mps 763 mmHg 85%
    19:00 +5°C° 0 mm 5 mps 764 mmHg 86%
    20:00 +5°C° 0 mm 4 mps 764 mmHg 87%
    21:00 +4°C° 0 mm 4 mps 765 mmHg 88%
    22:00 +4°C° 0 mm 4 mps 765 mmHg 88%
    23:00 +4°C° 0 mm 3 mps 766 mmHg 89%

    Tomorrow, 18 December, Monday

    Time Temperature Precipitation Wind Pressure Humidity
    00:00 +4°C° 0 mm 3 mps 766 mmHg 90%
    01:00 +4°C° 0 mm 3 mps 767 mmHg 91%
    02:00 +3°C° 0 mm 3 mps 767 mmHg 91%
    03:00 +3°C° 0 mm 3 mps 767 mmHg 92%
    04:00 +3°C° 0 mm 3 mps 767 mmHg 92%
    05:00 +3°C° 0 mm 3 mps 768 mmHg 93%
    06:00 +3°C° 0 mm 3 mps 768 mmHg 93%
    07:00 +3°C° 0 mm 3 mps 768 mmHg 93%
    08:00 +3°C° 0 mm 3 mps 768 mmHg 93%
    09:00 +3°C° 0 mm 3 mps 769 mmHg 93%
    10:00 +4°C° 0 mm 4 mps 769 mmHg 90%
    11:00 +5°C° 0 mm 4 mps 769 mmHg 87%
    12:00 +5°C° 0 mm 4 mps 769 mmHg 85%
    13:00 +5°C° 0 mm 4 mps 769 mmHg 85%
    14:00 +5°C° 0 mm 4 mps 769 mmHg 86%
    15:00 +5°C° 0 mm 4 mps 769 mmHg 86%
    16:00 +5°C° 0 mm 4 mps 769 mmHg 87%
    17:00 +5°C° 0 mm 4 mps 769 mmHg 89%
    18:00 +4°C° 0 mm 4 mps 769 mmHg 90%
    19:00 +5°C° 0 mm 4 mps 769 mmHg 91%
    20:00 +5°C° 0 mm 4 mps 769 mmHg 93%
    21:00 +5°C° 0 mm 5 mps 769 mmHg 94%
    22:00 +6°C° 0 mm 5 mps 769 mmHg 94%
    23:00 +6°C° 0 mm 5 mps 769 mmHg 95%

    Day after tomorrow, 19 December, Tuesday

    Time Temperature Precipitation Wind Pressure Humidity
    00:00 +7°C° 0 mm 5 mps 769 mmHg 96%
    01:00 +7°C° 0 mm 5 mps 769 mmHg 96%
    02:00 +7°C° 0 mm 5 mps 769 mmHg 96%
    03:00 +8°C° 0 mm 5 mps 769 mmHg 96%
    04:00 +8°C° 0 mm 5 mps 769 mmHg 96%
    05:00 +9°C° 0 mm 5 mps 769 mmHg 95%
    06:00 +9°C° 0 mm 5 mps 768 mmHg 95%
    07:00 +9°C° 0 mm 5 mps 769 mmHg 95%
    08:00 +9°C° 0 mm 6 mps 769 mmHg 95%
    09:00 +9°C° 0 mm 6 mps 769 mmHg 95%
    10:00 +10°C° 0 mm 6 mps 769 mmHg 93%
    11:00 +11°C° 0 mm 6 mps 769 mmHg 92%
    12:00 +11°C° 0 mm 7 mps 769 mmHg 90%
    13:00 +11°C° 0 mm 7 mps 769 mmHg 90%
    14:00 +11°C° 0 mm 7 mps 768 mmHg 90%
    15:00 +11°C° 0 mm 6 mps 768 mmHg 90%
    16:00 +11°C° 0 mm 7 mps 768 mmHg 90%
    17:00 +11°C° 0 mm 7 mps 768 mmHg 91%
    18:00 +11°C° 0 mm 7 mps 768 mmHg 91%
    19:00 +11°C° 0 mm 7 mps 768 mmHg 91%
    20:00 +11°C° 0 mm 7 mps 768 mmHg 91%
    21:00 +11°C° 0 mm 7 mps 768 mmHg 91%
    22:00 +11°C° 0.1 mm 7 mps 768 mmHg 90%
    23:00 +11°C° 0.1 mm 6 mps 768 mmHg 90%

    20 December, Wednesday

    Time Temperature Precipitation Wind Pressure Humidity
    00:00 +11°C° 0.1 mm 6 mps 768 mmHg 90%
    01:00 +11°C° 0.1 mm 6 mps 768 mmHg 91%
    02:00 +11°C° 0.1 mm 6 mps 768 mmHg 92%
    03:00 +12°C° 0.1 mm 5 mps 768 mmHg 92%
    04:00 +12°C° 0.1 mm 5 mps 768 mmHg 93%
    05:00 +11°C° 0.1 mm 4 mps 769 mmHg 94%
    06:00 +11°C° 0.1 mm 4 mps 769 mmHg 95%
    07:00 +10°C° 0 mm 4 mps 770 mmHg 95%
    08:00 +10°C° 0 mm 3 mps 770 mmHg 96%
    09:00 +9°C° 0 mm 3 mps 771 mmHg 96%
    10:00 +9°C° 0 mm 3 mps 771 mmHg 94%
    11:00 +9°C° 0 mm 3 mps 772 mmHg 92%
    12:00 +10°C° 0 mm 3 mps 772 mmHg 90%
    13:00 +9°C° 0 mm 2 mps 772 mmHg 90%
    14:00 +9°C° 0 mm 2 mps 772 mmHg 90%
    15:00 +9°C° 0 mm 2 mps 772 mmHg 91%
    16:00 +8°C° 0 mm 2 mps 772 mmHg 91%
    17:00 +8°C° 0 mm 2 mps 773 mmHg 91%
    18:00 +7°C° 0 mm 2 mps 773 mmHg 91%
    19:00 +7°C° 0 mm 2 mps 773 mmHg 90%
    20:00 +7°C° 0 mm 3 mps 774 mmHg 90%
    21:00 +7°C° 0 mm 3 mps 774 mmHg 90%
    22:00 +7°C° 0 mm 3 mps 774 mmHg 90%
    23:00 +7°C° 0 mm 3 mps 774 mmHg 89%

    21 December, Thursday

    Time Temperature Precipitation Wind Pressure Humidity
    00:00 +7°C° 0 mm 3 mps 774 mmHg 89%
    01:00 +7°C° 0.1 mm 3 mps 774 mmHg 88%
    02:00 +7°C° 0.1 mm 3 mps 774 mmHg 88%
    03:00 +7°C° 0.1 mm 3 mps 774 mmHg 87%
    04:00 +7°C° 0.1 mm 2 mps 774 mmHg 88%
    05:00 +7°C° 0.1 mm 2 mps 774 mmHg 88%
    06:00 +7°C° 0.1 mm 2 mps 774 mmHg 89%
    07:00 +7°C° 0.1 mm 2 mps 774 mmHg 90%
    08:00 +5°C° 0.1 mm 3 mps 774 mmHg 91%
    09:00 +5°C° 0.1 mm 3 mps 775 mmHg 91%
    10:00 +7°C° 0 mm 3 mps 775 mmHg 91%
    11:00 +7°C° 0 mm 2 mps 775 mmHg 90%
    12:00 +8°C° 0 mm 2 mps 775 mmHg 89%
    13:00 +8°C° 0 mm 2 mps 775 mmHg 91%
    14:00 +8°C° 0 mm 2 mps 775 mmHg 92%
    15:00 +8°C° 0 mm 2 mps 776 mmHg 93%
    16:00 +7°C° 0 mm 2 mps 776 mmHg 94%
    17:00 +8°C° 0 mm 1 mps 776 mmHg 94%
    18:00 +7°C° 0 mm 1 mps 776 mmHg 95%
    19:00 +7°C° 0 mm 1 mps 777 mmHg 95%
    20:00 +7°C° 0 mm 1 mps 777 mmHg 95%
    21:00 +7°C° 0 mm 1 mps 777 mmHg 95%
    22:00 +7°C° 0 mm 1 mps 777 mmHg 95%
    23:00 +6°C° 0 mm 1 mps 777 mmHg 95%

    22 December, Friday

    Time Temperature Precipitation Wind Pressure Humidity
    00:00 +6°C° 0 mm 1 mps 777 mmHg 96%
    01:00 +5°C° 0 mm 2 mps 777 mmHg 95%
    02:00 +5°C° 0 mm 2 mps 776 mmHg 94%
    03:00 +5°C° 0 mm 2 mps 776 mmHg 94%
    04:00 +5°C° 0 mm 2 mps 776 mmHg 92%
    05:00 +6°C° 0 mm 2 mps 776 mmHg 91%
    06:00 +6°C° 0 mm 2 mps 775 mmHg 90%
    07:00 +5°C° 0.3 mm 3 mps 775 mmHg 91%
    08:00 +5°C° 0.3 mm 3 mps 775 mmHg 93%
    09:00 +7°C° 0.3 mm 3 mps 775 mmHg 94%
    10:00 +7°C° 0.6 mm 3 mps 774 mmHg 94%
    11:00 +8°C° 0.6 mm 3 mps 774 mmHg 95%
    12:00 +8°C° 0.6 mm 3 mps 774 mmHg 95%
    13:00 +8°C° 0.2 mm 3 mps 774 mmHg 96%
    14:00 +8°C° 0.2 mm 3 mps 773 mmHg 96%
    15:00 +9°C° 0.2 mm 2 mps 773 mmHg 97%
    16:00 +9°C° 0.1 mm 2 mps 773 mmHg 97%
    17:00 +9°C° 0.1 mm 2 mps 773 mmHg 97%
    18:00 +9°C° 0.1 mm 2 mps 773 mmHg 97%
    19:00 +9°C° 0.1 mm 2 mps 774 mmHg 97%
    20:00 +9°C° 0.1 mm 2 mps 774 mmHg 97%
    21:00 +9°C° 0.1 mm 2 mps 774 mmHg 97%
    22:00 +9°C° 0.1 mm 2 mps 774 mmHg 97%
    23:00 +9°C° 0.1 mm 2 mps 774 mmHg 97%
    Show more